Location: Mahannah Oil Field
(37.4664°N, 96.6003°W)
Time: 11:07:38
(UTC+00:00)

Vanguard 2 - Pass Details

Date: 25 January 2021
Orbit: 552 x 2938 km, 32.9° (Epoch: 08 March)

Event Time Altitude Azimuth Distance (km) Brightness Sun altitude
Rises 00:50:13 0° 263° (W) 2,747 12.3 -13.6°
Reaches altitude 10° 00:52:16 10° 257° (WSW) 1,925 11.1 -14.0°
Maximum altitude 00:56:23 50° 182° (S) 903 8.0 -14.8°
Enters shadow 01:00:38 17° 112° (ESE) 2,106 9.3 -15.6°
